This demonstration page uses our WeatherBlox Daily Observations layout. Learn more.

Left ArrowRight Arrow

39.01783, -85.05884

Hourly Observations for October 13, 2020

Temp ( °F °C ) Dew Point ( °F °C ) Humidity (%) Winds ( mph kmh ) Pressure ( in mb ) Visibility ( mi km ) Precip ( " mm )
12:41 am 00:41 Mostly Cloudy 55 12.8 48 8.9 77 77 NW 17 28 30 1016 10 16.0934 0 0
12:52 am 00:52 Mostly Cloudy 55 12.8 48 8.9 77 77 NNW 12 19 29.98 1015 10 16.0934 0 0
1:16 am 01:16 Partly Cloudy 54 12.2 47 8.3 77 77 NNW 12 19 30 1016 10 16.0934 0 0
1:52 am 01:52 Clear 53 11.7 46 7.8 77 77 NNW 10 17 30 1016 10 16.0934 0 0
2:52 am 02:52 Clear 51 10.6 45 7.2 80 80 NW 5 7 30.02 1017 10 16.0934 0 0
3:52 am 03:52 Clear 47 8.3 43 6.1 86 86 W 5 7 30.04 1017 10 16.0934 0 0
4:52 am 04:52 Clear 46 7.8 43 6.1 89 89 W 3 6 30.05 1018 10 16.0934 0 0
5:52 am 05:52 Clear 44 6.7 42 5.6 93 93 W 5 7 30.08 1019 10 16.0934 0.001 0.001
6:38 am 06:38 Clear with Mist and Fog 44 6.7 42 5.6 93 93 Calm 30.13 1020 5 8.0467 0 0
6:52 am 06:52 Clear with Patchy Fog 44 6.7 42 5.6 93 93 Calm 30.1 1019 7 11.26538 0 0
7:52 am 07:52 Sunny with Mist and Fog 41 5 40 4.4 96 96 Calm 30.11 1020 6 9.65604 0 0
8:52 am 08:52 Sunny 46 7.8 44 6.7 93 93 Calm 30.14 1021 8 12.87472 0 0
9:52 am 09:52 Sunny 53 11.7 47 8.3 80 80 WNW 3 6 30.16 1021 10 16.0934 0.001 0.001
10:52 am 10:52 Sunny 59 15 46 7.8 62 62 Calm 30.17 1022 10 16.0934 0 0
11:52 am 11:52 Sunny 60 15.6 39 3.9 46 46 S 3 6 30.17 1022 10 16.0934 0 0
12:52 pm 12:52 Sunny 63 17.2 39 3.9 41 41 Calm 30.17 1022 10 16.0934 0 0
1:52 pm 13:52 Sunny 66 18.9 37 2.8 34 34 NE 3 6 30.14 1021 10 16.0934 0 0
2:52 pm 14:52 Sunny 67 19.4 38 3.3 35 35 WSW 5 7 30.1 1019 10 16.0934 0 0
3:52 pm 15:52 Sunny 68 20 36 2.2 31 31 VRB 7 11 30.09 1019 10 16.0934 0 0
4:52 pm 16:52 Sunny 67 19.4 33 0.6 28 28 S 7 11 30.08 1019 10 16.0934 0 0
5:52 pm 17:52 Sunny 67 19.4 35 1.7 31 31 SW 8 13 30.06 1018 10 16.0934 0 0
6:52 pm 18:52 Sunny 62 16.7 34 1.1 35 35 SSW 6 9 30.06 1018 10 16.0934 0 0
7:52 pm 19:52 Clear 59 15 36 2.2 42 42 SSW 6 9 30.07 1018 10 16.0934 0 0
8:52 pm 20:52 Clear 56 13.3 38 3.3 51 51 SSW 6 9 30.06 1018 10 16.0934 0 0
9:52 pm 21:52 Clear 55 12.8 38 3.3 53 53 SW 6 9 30.07 1018 10 16.0934 0 0
10:52 pm 22:52 Clear 54 12.2 39 3.9 57 57 SSW 6 9 30.07 1018 10 16.0934 0 0
11:52 pm 23:52 Mostly Clear 55 12.8 39 3.9 55 55 SSW 8 13 30.07 1018 10 16.0934 0 0

Powered by AerisWeather